LNK3135 FHSH-FHAW

Flight info

Callsign LNK3135
Flight time 1h 55m
Altitude 38000
Route SH DCT ASI
Aircraft E190/M-SDE3GILORVW/S

Departure

Time 2026-05-06 11:46
Airport Saint Helena International Airport (FHSH)

Arrival

Time 2026-05-06 13:41
Airport RAF Ascension Island (FHAW)
Time Latitude Longitude Altitude Speed Heading
2026-05-06 11:29 -15.96185 -5.64828 1007 ft 0 kts 177°
2026-05-06 11:40 -15.96186 -5.64828 1010 ft 0 kts 176°
2026-05-06 11:40 -15.96190 -5.64824 1011 ft 1 kts 147°
2026-05-06 11:41 -15.96191 -5.64815 1009 ft 2 kts 110°
2026-05-06 11:41 -15.96198 -5.64785 1012 ft 5 kts 118°
2026-05-06 11:41 -15.96214 -5.64737 1007 ft 9 kts 88°
2026-05-06 11:41 -15.96213 -5.64660 1008 ft 11 kts 89°
2026-05-06 11:42 -15.96212 -5.64635 1008 ft 1 kts 88°
2026-05-06 11:42 -15.96211 -5.64622 1011 ft 0 kts 89°
2026-05-06 11:42 -15.96211 -5.64623 1011 ft 1 kts 90°
2026-05-06 11:43 -15.96211 -5.64620 1010 ft 2 kts 90°
2026-05-06 11:43 -15.96211 -5.64616 1009 ft 1 kts 90°
2026-05-06 11:43 -15.96182 -5.64587 1013 ft 12 kts 10°
2026-05-06 11:44 -15.95831 -5.64596 1015 ft 32 kts 359°
2026-05-06 11:44 -15.95613 -5.64600 1013 ft 32 kts 356°
2026-05-06 11:44 -15.95390 -5.64604 1015 ft 32 kts 359°
2026-05-06 11:44 -15.95171 -5.64611 1012 ft 32 kts 359°
2026-05-06 11:45 -15.94981 -5.64643 1010 ft 20 kts 351°
2026-05-06 11:45 -15.94968 -5.64616 1011 ft 3 kts 162°
2026-05-06 11:45 -15.94990 -5.64616 1011 ft 4 kts 177°
2026-05-06 11:45 -15.95120 -5.64613 1011 ft 47 kts 179°
2026-05-06 11:46 -15.95672 -5.64598 1016 ft 110 kts 178°
2026-05-06 11:46 -15.96604 -5.64580 1028 ft 158 kts 171°
2026-05-06 11:46 -15.97729 -5.64532 1791 ft 156 kts 167°
2026-05-06 11:46 -15.98790 -5.64435 2764 ft 155 kts 169°
2026-05-06 11:47 -15.99916 -5.64371 3457 ft 170 kts 171°
2026-05-06 11:47 -16.01056 -5.64393 4023 ft 157 kts 180°
2026-05-06 11:47 -16.02221 -5.64710 3401 ft 201 kts 201°
2026-05-06 11:47 -16.03442 -5.65783 2054 ft 263 kts 227°
2026-05-06 11:48 -16.04300 -5.67388 2443 ft 228 kts 241°
2026-05-06 11:48 -16.04743 -5.68919 2905 ft 222 kts 255°
2026-05-06 11:48 -16.05049 -5.70463 3703 ft 219 kts 254°
2026-05-06 11:48 -16.05372 -5.72000 4569 ft 216 kts 254°
2026-05-06 11:49 -16.05510 -5.73572 5267 ft 221 kts 273°
2026-05-06 11:49 -16.05338 -5.75216 5651 ft 244 kts 274°
2026-05-06 11:49 -16.05110 -5.76991 6361 ft 252 kts 283°
2026-05-06 11:49 -16.04345 -5.78687 6952 ft 266 kts 300°
2026-05-06 11:50 -16.03304 -5.80335 7562 ft 280 kts 311°
2026-05-06 11:50 -16.01706 -5.81525 8142 ft 293 kts 340°
2026-05-06 11:50 -15.99675 -5.81834 8905 ft 299 kts
2026-05-06 11:50 -15.97610 -5.81473 9807 ft 303 kts 14°
2026-05-06 11:51 -15.95511 -5.80987 10571 ft 313 kts 14°
2026-05-06 11:51 -15.93386 -5.80500 11436 ft 317 kts 14°
2026-05-06 11:51 -15.91224 -5.80000 12355 ft 319 kts 14°
2026-05-06 11:51 -15.89057 -5.79491 13307 ft 319 kts 14°
2026-05-06 11:52 -15.86910 -5.78978 14193 ft 320 kts 14°
2026-05-06 11:52 -15.84656 -5.78796 14786 ft 333 kts 352°
2026-05-06 11:52 -15.82384 -5.79501 15196 ft 349 kts 329°
2026-05-06 11:52 -15.80536 -5.81122 15917 ft 352 kts 311°
2026-05-06 11:53 -15.78900 -5.83036 16728 ft 355 kts 310°
2026-05-06 11:53 -15.77239 -5.84959 17506 ft 359 kts 311°
2026-05-06 11:53 -15.75563 -5.86863 18259 ft 362 kts 311°
2026-05-06 11:53 -15.73857 -5.88810 18909 ft 365 kts 310°
2026-05-06 11:54 -15.72133 -5.90778 19556 ft 367 kts 311°
2026-05-06 11:54 -15.70425 -5.92722 20174 ft 369 kts 310°
2026-05-06 11:54 -15.68679 -5.94707 20785 ft 372 kts 310°
2026-05-06 11:54 -15.66946 -5.96674 21401 ft 374 kts 310°
2026-05-06 11:55 -15.65173 -5.98684 22013 ft 376 kts 310°
2026-05-06 11:55 -15.63419 -6.00674 22637 ft 377 kts 310°
2026-05-06 11:55 -15.61636 -6.02697 23216 ft 380 kts 310°
2026-05-06 11:55 -15.59842 -6.04739 23760 ft 382 kts 310°
2026-05-06 11:56 -15.58067 -6.06761 24229 ft 383 kts 310°
2026-05-06 11:56 -15.56254 -6.08821 24664 ft 386 kts 310°
2026-05-06 11:56 -15.54459 -6.10863 25064 ft 388 kts 310°
2026-05-06 11:56 -15.52621 -6.12952 25456 ft 391 kts 310°
2026-05-06 11:57 -15.50778 -6.15049 25859 ft 393 kts 310°
2026-05-06 11:57 -15.48925 -6.17156 26257 ft 395 kts 310°
2026-05-06 11:57 -15.47087 -6.19250 26650 ft 398 kts 310°
2026-05-06 11:57 -15.45207 -6.21385 27022 ft 400 kts 310°
2026-05-06 11:58 -15.43321 -6.23530 27392 ft 403 kts 310°
2026-05-06 11:58 -15.41446 -6.25662 27751 ft 405 kts 310°
2026-05-06 11:58 -15.39537 -6.27836 28123 ft 407 kts 310°
2026-05-06 11:58 -15.37640 -6.29992 28459 ft 409 kts 310°
2026-05-06 11:59 -15.35713 -6.32184 28790 ft 412 kts 310°
2026-05-06 11:59 -15.33769 -6.34397 29118 ft 414 kts 310°
2026-05-06 11:59 -15.31844 -6.36586 29431 ft 416 kts 309°
2026-05-06 11:59 -15.29887 -6.38811 29731 ft 418 kts 310°
2026-05-06 12:00 -15.28584 -6.40291 29915 ft 420 kts 310°
2026-05-06 12:00 -15.26613 -6.42534 30191 ft 422 kts 310°
2026-05-06 12:00 -15.24624 -6.44796 30426 ft 423 kts 309°
2026-05-06 12:00 -15.22642 -6.47051 30654 ft 425 kts 309°
2026-05-06 12:01 -15.20643 -6.49324 30881 ft 426 kts 309°
2026-05-06 12:01 -15.18662 -6.51576 31094 ft 428 kts 309°
2026-05-06 12:01 -15.16636 -6.53879 31317 ft 430 kts 309°
2026-05-06 12:01 -15.14616 -6.56174 31526 ft 432 kts 309°
2026-05-06 12:02 -15.12604 -6.58460 31743 ft 433 kts 309°
2026-05-06 12:02 -15.10555 -6.60788 31955 ft 435 kts 309°
2026-05-06 12:02 -15.08534 -6.63083 32171 ft 436 kts 309°
2026-05-06 12:02 -15.06481 -6.65414 32395 ft 437 kts 309°
2026-05-06 12:03 -15.04445 -6.67722 32691 ft 437 kts 309°
2026-05-06 12:03 -15.02389 -6.70050 33003 ft 436 kts 309°
2026-05-06 12:03 -15.00342 -6.72366 33315 ft 435 kts 309°
2026-05-06 12:03 -14.98320 -6.74655 33624 ft 434 kts 309°
2026-05-06 12:04 -14.96279 -6.76964 33901 ft 433 kts 309°
2026-05-06 12:04 -14.94243 -6.79270 34159 ft 433 kts 309°
2026-05-06 12:04 -14.92210 -6.81572 34393 ft 432 kts 309°
2026-05-06 12:04 -14.90207 -6.83838 34642 ft 430 kts 309°
2026-05-06 12:05 -14.88181 -6.86129 34890 ft 429 kts 309°
2026-05-06 12:05 -14.86171 -6.88402 35133 ft 428 kts 309°
2026-05-06 12:05 -14.84152 -6.90685 35348 ft 427 kts 309°
2026-05-06 12:05 -14.82174 -6.92923 35568 ft 426 kts 309°
2026-05-06 12:06 -14.80171 -6.95187 35791 ft 424 kts 309°
2026-05-06 12:06 -14.78198 -6.97418 35995 ft 424 kts 309°
2026-05-06 12:06 -14.76203 -6.99673 36176 ft 423 kts 309°
2026-05-06 12:06 -14.74216 -7.01920 36364 ft 422 kts 309°
2026-05-06 12:07 -14.72252 -7.04140 36531 ft 421 kts 309°
2026-05-06 12:07 -14.70274 -7.06375 36705 ft 420 kts 309°
2026-05-06 12:07 -14.68294 -7.08613 36864 ft 420 kts 309°
2026-05-06 12:07 -14.66338 -7.10823 37031 ft 419 kts 309°
2026-05-06 12:08 -14.64367 -7.13051 37158 ft 419 kts 310°
2026-05-06 12:08 -14.62395 -7.15279 37286 ft 418 kts 310°
2026-05-06 12:08 -14.60449 -7.17478 37420 ft 418 kts 310°
2026-05-06 12:08 -14.58485 -7.19696 37547 ft 417 kts 310°
2026-05-06 12:09 -14.56527 -7.21907 37660 ft 417 kts 310°
2026-05-06 12:09 -14.54566 -7.24121 37781 ft 416 kts 310°
2026-05-06 12:09 -14.52609 -7.26330 37896 ft 415 kts 310°
2026-05-06 12:09 -14.50680 -7.28508 37997 ft 415 kts 310°
2026-05-06 12:10 -14.46775 -7.32920 38013 ft 419 kts 310°
2026-05-06 12:10 -14.42817 -7.37394 38027 ft 423 kts 310°
2026-05-06 12:11 -14.38835 -7.41890 38041 ft 426 kts 310°
2026-05-06 12:11 -14.34828 -7.46412 38062 ft 429 kts 310°
2026-05-06 12:12 -14.30773 -7.50985 38091 ft 433 kts 310°
2026-05-06 12:12 -14.26715 -7.55558 38114 ft 434 kts 310°
2026-05-06 12:13 -14.22625 -7.60162 38159 ft 437 kts 310°
2026-05-06 12:13 -14.18505 -7.64802 38081 ft 439 kts 310°
2026-05-06 12:14 -14.14386 -7.69440 38075 ft 437 kts 310°
2026-05-06 12:14 -14.10283 -7.74054 38100 ft 438 kts 310°
2026-05-06 12:15 -14.06175 -7.78671 38088 ft 438 kts 310°
2026-05-06 12:15 -14.02069 -7.83284 38094 ft 438 kts 310°
2026-05-06 12:16 -13.97931 -7.87930 38087 ft 438 kts 310°
2026-05-06 12:16 -13.93812 -7.92552 38087 ft 438 kts 310°
2026-05-06 12:17 -13.89699 -7.97164 38086 ft 439 kts 310°
2026-05-06 12:17 -13.85554 -8.01810 38084 ft 438 kts 310°
2026-05-06 12:18 -13.81445 -8.06413 38086 ft 439 kts 310°
2026-05-06 12:18 -13.77305 -8.11048 38086 ft 439 kts 310°
2026-05-06 12:19 -13.73189 -8.15653 38082 ft 439 kts 310°
2026-05-06 12:19 -13.69049 -8.20283 38084 ft 439 kts 310°
2026-05-06 12:20 -13.64921 -8.24897 38084 ft 439 kts 310°
2026-05-06 12:20 -13.60788 -8.29513 38081 ft 439 kts 310°
2026-05-06 12:21 -13.56662 -8.34120 38083 ft 439 kts 310°
2026-05-06 12:21 -13.52508 -8.38755 38080 ft 440 kts 310°
2026-05-06 12:22 -13.48382 -8.43357 38078 ft 439 kts 310°
2026-05-06 12:22 -13.44219 -8.47996 38078 ft 440 kts 310°
2026-05-06 12:23 -13.40088 -8.52599 38081 ft 440 kts 310°
2026-05-06 12:23 -13.35941 -8.57216 38078 ft 440 kts 310°
2026-05-06 12:24 -13.31785 -8.61840 38078 ft 440 kts 310°
2026-05-06 12:24 -13.27647 -8.66443 38076 ft 440 kts 310°
2026-05-06 12:25 -13.23506 -8.71046 38074 ft 440 kts 310°
2026-05-06 12:25 -13.19345 -8.75669 38074 ft 440 kts 310°
2026-05-06 12:26 -13.15200 -8.80271 38071 ft 440 kts 310°
2026-05-06 12:26 -13.11053 -8.84873 38067 ft 440 kts 310°
2026-05-06 12:27 -13.06903 -8.89476 38066 ft 440 kts 310°
2026-05-06 12:27 -13.02723 -8.94110 38068 ft 440 kts 310°
2026-05-06 12:28 -12.98583 -8.98697 38067 ft 440 kts 310°
2026-05-06 12:28 -12.94429 -9.03297 38067 ft 440 kts 310°
2026-05-06 12:29 -12.90271 -9.07899 38066 ft 440 kts 310°
2026-05-06 12:29 -12.86098 -9.12515 38062 ft 440 kts 310°
2026-05-06 12:30 -12.81949 -9.17103 38066 ft 440 kts 310°
2026-05-06 12:30 -12.77798 -9.21690 38062 ft 440 kts 310°
2026-05-06 12:31 -12.73633 -9.26290 38060 ft 440 kts 311°
2026-05-06 12:31 -12.69477 -9.30879 38056 ft 440 kts 311°
2026-05-06 12:32 -12.65294 -9.35493 38059 ft 440 kts 311°
2026-05-06 12:32 -12.61151 -9.40063 38058 ft 440 kts 311°
2026-05-06 12:33 -12.56973 -9.44668 38056 ft 440 kts 311°
2026-05-06 12:33 -12.52814 -9.49249 38060 ft 440 kts 311°
2026-05-06 12:34 -12.48671 -9.53812 38056 ft 439 kts 311°
2026-05-06 12:34 -12.44512 -9.58389 38055 ft 439 kts 311°
2026-05-06 12:35 -12.40323 -9.62996 38056 ft 439 kts 311°
2026-05-06 12:35 -12.36173 -9.67559 38051 ft 439 kts 311°
2026-05-06 12:36 -12.32017 -9.72127 38053 ft 439 kts 311°
2026-05-06 12:36 -12.27844 -9.76709 38052 ft 439 kts 311°
2026-05-06 12:37 -12.23679 -9.81282 38051 ft 439 kts 311°
2026-05-06 12:37 -12.19532 -9.85831 38049 ft 439 kts 311°
2026-05-06 12:38 -12.15358 -9.90410 38047 ft 439 kts 311°
2026-05-06 12:38 -12.11204 -9.94963 38050 ft 439 kts 311°
2026-05-06 12:39 -12.07054 -9.99510 38051 ft 439 kts 311°
2026-05-06 12:39 -12.02880 -10.04081 38048 ft 439 kts 311°
2026-05-06 12:40 -11.98737 -10.08616 38045 ft 438 kts 311°
2026-05-06 12:40 -11.94554 -10.13193 38047 ft 438 kts 311°
2026-05-06 12:41 -11.90413 -10.17722 38045 ft 438 kts 311°
2026-05-06 12:41 -11.86236 -10.22287 38042 ft 439 kts 311°
2026-05-06 12:42 -11.82085 -10.26821 38042 ft 439 kts 311°
2026-05-06 12:42 -11.77907 -10.31383 38040 ft 439 kts 311°
2026-05-06 12:43 -11.73758 -10.35912 38039 ft 439 kts 311°
2026-05-06 12:43 -11.69597 -10.40451 38041 ft 439 kts 311°
2026-05-06 12:44 -11.65411 -10.45016 38036 ft 439 kts 311°
2026-05-06 12:44 -11.61235 -10.49567 38037 ft 438 kts 311°
2026-05-06 12:45 -11.57070 -10.54106 38034 ft 439 kts 311°
2026-05-06 12:46 -11.50827 -10.60913 38029 ft 438 kts 311°
2026-05-06 12:46 -11.46662 -10.65448 38034 ft 439 kts 311°
2026-05-06 12:47 -11.42484 -10.69987 38033 ft 439 kts 311°
2026-05-06 12:47 -11.39013 -10.73754 38031 ft 439 kts 311°
2026-05-06 12:48 -11.34828 -10.78299 38032 ft 439 kts 311°
2026-05-06 12:48 -11.30653 -10.82836 38030 ft 439 kts 311°
2026-05-06 12:49 -11.26488 -10.87356 38024 ft 439 kts 311°
2026-05-06 12:49 -11.22300 -10.91901 38024 ft 439 kts 311°
2026-05-06 12:50 -11.18108 -10.96462 38025 ft 439 kts 311°
2026-05-06 12:50 -11.13940 -11.00988 38026 ft 439 kts 311°
2026-05-06 12:51 -11.09752 -11.05519 38023 ft 439 kts 311°
2026-05-06 12:51 -11.05580 -11.10041 38025 ft 440 kts 311°
2026-05-06 12:52 -11.01399 -11.14566 38025 ft 440 kts 311°
2026-05-06 12:52 -10.97197 -11.19120 38025 ft 440 kts 311°
2026-05-06 12:53 -10.93018 -11.23645 38023 ft 440 kts 311°
2026-05-06 12:53 -10.88812 -11.28196 38020 ft 440 kts 311°
2026-05-06 12:54 -10.84626 -11.32721 38020 ft 440 kts 311°
2026-05-06 12:54 -10.80439 -11.37246 38020 ft 441 kts 311°
2026-05-06 12:55 -10.76215 -11.41806 38022 ft 441 kts 311°
2026-05-06 12:55 -10.72022 -11.46330 38022 ft 441 kts 311°
2026-05-06 12:56 -10.67807 -11.50880 38018 ft 441 kts 311°
2026-05-06 12:56 -10.63605 -11.55418 38021 ft 441 kts 311°
2026-05-06 12:57 -10.59409 -11.59940 38016 ft 441 kts 311°
2026-05-06 12:57 -10.55207 -11.64462 38016 ft 441 kts 311°
2026-05-06 12:58 -10.50969 -11.69022 38018 ft 441 kts 311°
2026-05-06 12:58 -10.46783 -11.73532 38016 ft 441 kts 311°
2026-05-06 12:59 -10.42561 -11.78091 38016 ft 441 kts 311°
2026-05-06 12:59 -10.38357 -11.82622 38017 ft 441 kts 311°
2026-05-06 13:00 -10.34135 -11.87161 38014 ft 441 kts 312°
2026-05-06 13:00 -10.29933 -11.91679 38027 ft 441 kts 313°
2026-05-06 13:01 -10.25741 -11.96189 38009 ft 440 kts 312°
2026-05-06 13:01 -10.21526 -12.00714 38032 ft 439 kts 312°
2026-05-06 13:02 -10.17333 -12.05213 38010 ft 440 kts 312°
2026-05-06 13:02 -10.13144 -12.09709 38007 ft 441 kts 312°
2026-05-06 13:03 -10.08921 -12.14240 38005 ft 441 kts 312°
2026-05-06 13:03 -10.04723 -12.18745 38007 ft 441 kts 312°
2026-05-06 13:04 -10.00509 -12.23257 38008 ft 441 kts 312°
2026-05-06 13:04 -9.96272 -12.27793 38002 ft 441 kts 313°
2026-05-06 13:05 -9.92061 -12.32293 38004 ft 440 kts 313°
2026-05-06 13:05 -9.87853 -12.36807 37999 ft 440 kts 313°
2026-05-06 13:06 -9.83652 -12.41311 37999 ft 440 kts 313°
2026-05-06 13:06 -9.79446 -12.45814 37999 ft 440 kts 313°
2026-05-06 13:07 -9.75237 -12.50317 38000 ft 439 kts 313°
2026-05-06 13:07 -9.71032 -12.54807 37999 ft 440 kts 313°
2026-05-06 13:08 -9.66811 -12.59315 37997 ft 440 kts 313°
2026-05-06 13:08 -9.62610 -12.63791 37996 ft 440 kts 313°
2026-05-06 13:09 -9.58365 -12.68310 38000 ft 441 kts 313°
2026-05-06 13:09 -9.54161 -12.72807 37997 ft 441 kts 314°
2026-05-06 13:10 -9.49942 -12.77306 37994 ft 442 kts 314°
2026-05-06 13:10 -9.45691 -12.81846 37993 ft 442 kts 314°
2026-05-06 13:11 -9.41466 -12.86347 37990 ft 442 kts 314°
2026-05-06 13:11 -9.37235 -12.90861 37994 ft 442 kts 314°
2026-05-06 13:12 -9.32975 -12.95395 37992 ft 443 kts 314°
2026-05-06 13:12 -9.28735 -12.99914 37989 ft 443 kts 314°
2026-05-06 13:13 -9.24493 -13.04425 37990 ft 443 kts 314°
2026-05-06 13:13 -9.20232 -13.08959 37988 ft 443 kts 314°
2026-05-06 13:14 -9.15985 -13.13483 37991 ft 443 kts 314°
2026-05-06 13:14 -9.11749 -13.17985 37988 ft 443 kts 315°
2026-05-06 13:15 -9.07473 -13.22503 37988 ft 443 kts 315°
2026-05-06 13:15 -9.03224 -13.27011 37986 ft 443 kts 315°
2026-05-06 13:16 -8.98967 -13.31535 37986 ft 442 kts 314°
2026-05-06 13:16 -8.94750 -13.36007 37984 ft 443 kts 315°
2026-05-06 13:17 -8.90485 -13.40530 37983 ft 443 kts 315°
2026-05-06 13:17 -8.86242 -13.45025 37984 ft 443 kts 315°
2026-05-06 13:18 -8.82008 -13.49530 37982 ft 443 kts 315°
2026-05-06 13:18 -8.77736 -13.54061 37984 ft 443 kts 315°
2026-05-06 13:19 -8.73500 -13.58553 37981 ft 443 kts 315°
2026-05-06 13:19 -8.69254 -13.63050 37979 ft 443 kts 315°
2026-05-06 13:20 -8.65003 -13.67549 37979 ft 441 kts 315°
2026-05-06 13:20 -8.62920 -13.69754 37940 ft 423 kts 315°
2026-05-06 13:20 -8.60930 -13.71860 37876 ft 406 kts 314°
2026-05-06 13:20 -8.58974 -13.73928 36933 ft 409 kts 314°
2026-05-06 13:21 -8.56982 -13.76038 35718 ft 423 kts 313°
2026-05-06 13:21 -8.54983 -13.78163 35466 ft 410 kts 313°
2026-05-06 13:21 -8.53031 -13.80237 34815 ft 410 kts 313°
2026-05-06 13:21 -8.51078 -13.82313 34350 ft 404 kts 313°
2026-05-06 13:22 -8.49144 -13.84365 33766 ft 402 kts 313°
2026-05-06 13:22 -8.47227 -13.86395 33290 ft 395 kts 312°
2026-05-06 13:22 -8.45334 -13.88400 32725 ft 393 kts 312°
2026-05-06 13:22 -8.43443 -13.90401 32249 ft 394 kts 312°
2026-05-06 13:23 -8.41549 -13.92412 31697 ft 401 kts 311°
2026-05-06 13:23 -8.39604 -13.94478 31173 ft 408 kts 311°
2026-05-06 13:23 -8.37653 -13.96545 30608 ft 411 kts 311°
2026-05-06 13:23 -8.35662 -13.98654 30072 ft 413 kts 311°
2026-05-06 13:24 -8.33673 -14.00765 29497 ft 413 kts 311°
2026-05-06 13:24 -8.31714 -14.02842 28954 ft 413 kts 311°
2026-05-06 13:24 -8.29724 -14.04954 28436 ft 414 kts 311°
2026-05-06 13:24 -8.27721 -14.07074 27844 ft 417 kts 311°
2026-05-06 13:25 -8.25741 -14.09166 27324 ft 416 kts 312°
2026-05-06 13:25 -8.23751 -14.11271 26748 ft 413 kts 311°
2026-05-06 13:25 -8.21758 -14.13381 26199 ft 408 kts 311°
2026-05-06 13:25 -8.19821 -14.15425 25673 ft 404 kts 312°
2026-05-06 13:26 -8.17887 -14.17471 25127 ft 400 kts 312°
2026-05-06 13:26 -8.15966 -14.19501 24593 ft 397 kts 312°
2026-05-06 13:26 -8.14323 -14.21682 24096 ft 392 kts 300°
2026-05-06 13:26 -8.13021 -14.24100 23578 ft 391 kts 296°
2026-05-06 13:27 -8.11802 -14.26518 23062 ft 388 kts 296°
2026-05-06 13:27 -8.10590 -14.28953 22593 ft 388 kts 296°
2026-05-06 13:27 -8.09383 -14.31402 22100 ft 388 kts 296°
2026-05-06 13:27 -8.08185 -14.33845 21608 ft 389 kts 296°
2026-05-06 13:28 -8.07000 -14.36272 21121 ft 388 kts 296°
2026-05-06 13:28 -8.05810 -14.38728 20624 ft 387 kts 296°
2026-05-06 13:28 -8.04639 -14.41162 20128 ft 382 kts 296°
2026-05-06 13:28 -8.03488 -14.43564 19643 ft 378 kts 296°
2026-05-06 13:29 -8.02338 -14.45979 18905 ft 387 kts 296°
2026-05-06 13:29 -8.01194 -14.48401 17924 ft 383 kts 296°
2026-05-06 13:29 -8.00059 -14.50815 16857 ft 376 kts 296°
2026-05-06 13:29 -7.98948 -14.53171 15837 ft 368 kts 296°
2026-05-06 13:30 -7.97853 -14.55484 14848 ft 361 kts 296°
2026-05-06 13:30 -7.96792 -14.57714 13904 ft 353 kts 296°
2026-05-06 13:30 -7.95732 -14.59930 12858 ft 346 kts 296°
2026-05-06 13:30 -7.94691 -14.62101 11832 ft 339 kts 296°
2026-05-06 13:31 -7.93707 -14.64155 11520 ft 313 kts 296°
2026-05-06 13:31 -7.92806 -14.66039 11460 ft 282 kts 296°
2026-05-06 13:31 -7.91991 -14.67748 11377 ft 257 kts 296°
2026-05-06 13:31 -7.91255 -14.69288 11267 ft 235 kts 299°
2026-05-06 13:32 -7.90254 -14.70512 11017 ft 219 kts 315°
2026-05-06 13:32 -7.89217 -14.71571 10869 ft 204 kts 319°
2026-05-06 13:32 -7.88067 -14.72333 10642 ft 198 kts 339°
2026-05-06 13:32 -7.86725 -14.72573 10332 ft 196 kts
2026-05-06 13:33 -7.85416 -14.72270 10017 ft 196 kts 24°
2026-05-06 13:33 -7.84284 -14.71505 9658 ft 197 kts 44°
2026-05-06 13:33 -7.83474 -14.70383 9281 ft 199 kts 64°
2026-05-06 13:33 -7.83098 -14.69048 8923 ft 200 kts 85°
2026-05-06 13:34 -7.83190 -14.67649 8442 ft 209 kts 103°
2026-05-06 13:34 -7.83828 -14.66243 7509 ft 231 kts 121°
2026-05-06 13:34 -7.84723 -14.64853 6724 ft 243 kts 121°
2026-05-06 13:34 -7.85641 -14.63380 5928 ft 246 kts 120°
2026-05-06 13:35 -7.86220 -14.62424 5641 ft 235 kts 120°
2026-05-06 13:35 -7.87035 -14.61040 5092 ft 224 kts 118°
2026-05-06 13:35 -7.87770 -14.59716 4772 ft 207 kts 117°
2026-05-06 13:35 -7.88411 -14.58505 4500 ft 186 kts 116°
2026-05-06 13:36 -7.88968 -14.57390 4266 ft 170 kts 114°
2026-05-06 13:36 -7.89459 -14.56361 4049 ft 160 kts 114°
2026-05-06 13:36 -7.89966 -14.55309 3440 ft 172 kts 116°
2026-05-06 13:36 -7.90511 -14.54227 2926 ft 172 kts 117°
2026-05-06 13:37 -7.91038 -14.53164 2404 ft 170 kts 116°
2026-05-06 13:37 -7.91549 -14.52107 2012 ft 157 kts 116°
2026-05-06 13:37 -7.91939 -14.51146 1938 ft 145 kts 107°
2026-05-06 13:37 -7.92136 -14.50181 1701 ft 137 kts 101°
2026-05-06 13:38 -7.92276 -14.49257 1399 ft 131 kts 100°
2026-05-06 13:38 -7.92458 -14.48407 1185 ft 120 kts 110°
2026-05-06 13:38 -7.92826 -14.47664 1105 ft 120 kts 118°
2026-05-06 13:38 -7.93219 -14.46920 1128 ft 119 kts 115°
2026-05-06 13:39 -7.93569 -14.46163 1179 ft 122 kts 113°
2026-05-06 13:39 -7.93931 -14.45382 1200 ft 123 kts 117°
2026-05-06 13:39 -7.94320 -14.44625 1240 ft 122 kts 116°
2026-05-06 13:39 -7.94684 -14.43843 1075 ft 127 kts 118°
2026-05-06 13:40 -7.95107 -14.43037 939 ft 130 kts 118°
2026-05-06 13:40 -7.95501 -14.42231 755 ft 129 kts 119°
2026-05-06 13:40 -7.95919 -14.41436 503 ft 124 kts 120°
2026-05-06 13:40 -7.96280 -14.40710 309 ft 115 kts 117°
2026-05-06 13:41 -7.96642 -14.40001 279 ft 103 kts 115°
2026-05-06 13:41 -7.96915 -14.39455 268 ft 71 kts 117°
2026-05-06 13:41 -7.97097 -14.39095 245 ft 40 kts 117°
2026-05-06 13:41 -7.97138 -14.38952 240 ft 6 kts 195°
2026-05-06 13:42 -7.97146 -14.38996 241 ft 9 kts 291°
2026-05-06 13:42 -7.97109 -14.39070 244 ft 15 kts 296°
2026-05-06 13:42 -7.97055 -14.39180 250 ft 20 kts 295°
2026-05-06 13:42 -7.96983 -14.39321 259 ft 25 kts 298°
2026-05-06 13:43 -7.96891 -14.39508 274 ft 34 kts 296°
2026-05-06 13:43 -7.96772 -14.39741 284 ft 41 kts 294°
2026-05-06 13:43 -7.96724 -14.39931 280 ft 11 kts 203°
2026-05-06 13:43 -7.96793 -14.39962 289 ft 11 kts 204°
2026-05-06 13:44 -7.96864 -14.40000 282 ft 12 kts 221°
2026-05-06 13:44 -7.96922 -14.40068 281 ft 14 kts 234°
2026-05-06 13:44 -7.96984 -14.40155 280 ft 16 kts 232°
2026-05-06 13:44 -7.97016 -14.40253 278 ft 14 kts 296°
2026-05-06 13:45 -7.96969 -14.40350 280 ft 16 kts 298°
2026-05-06 13:45 -7.96842 -14.40483 273 ft 12 kts 49°
2026-05-06 13:45 -7.96809 -14.40416 273 ft 9 kts 60°
2026-05-06 13:46 -7.96789 -14.40379 274 ft 0 kts 65°